| << 1.5. | 3.5. >> |
|
Dirección del viento en Grado |
Velocidad del viento en km/h |
Ráfagas de viento en m/s |
Temperatura en °C |
Humedad rel. en % |
Windchill en °C |
Presión atm. en hPa |
Punto de rocío en °C |
Precipitación en mm |
Radiación global en W/m² |
|
|---|---|---|---|---|---|---|---|---|---|---|
| ▲ Máximos | 14,6 | 7,4 | 21,3 | 93,8 | 22,33 | 15,3 | 1123 | |||
| Ø Promedio | 312,5 | 8,4 | 4,1 | 16,0 | 85,2 | 16,00 | 13,3 | 247 | ||
| ▼ Mínimos | 3,9 | 2,3 | 13,1 | 63,4 | 12,75 | 11,7 | 7 | |||
| ∑ Total |
| Tiempo (UTC) | Dirección del viento en Grado | Velocidad del viento en km/h | Ráfagas de viento en m/s | Temperatura en °C | Humedad rel. en % | Windchill en °C | Presión atm. en hPa | Punto de rocío en °C | Precipitación en mm | Radiación global en W/m² |
|---|---|---|---|---|---|---|---|---|---|---|
| 00:00 | 272,2 | 7,8 | 3,4 | 13,5 | 93,5 | 13,11 | --- | 12,3 | --- | 7 |
| 00:10 | 269,2 | 7,5 | 3,6 | 13,4 | 93,7 | 13,06 | --- | 12,3 | --- | 7 |
| 00:20 | 282,3 | 6,7 | 3,0 | 13,4 | 93,7 | 13,25 | --- | 12,3 | --- | 7 |
| 00:30 | 275,5 | 6,6 | 3,1 | 13,4 | 93,7 | 13,30 | --- | 12,3 | --- | 7 |
| 00:40 | 263,4 | 7,3 | 3,3 | 13,4 | 93,6 | 13,18 | --- | 12,3 | --- | 7 |
| 00:50 | 267,9 | 6,9 | 3,2 | 13,5 | 93,6 | 13,34 | --- | 12,4 | --- | 7 |
| 01:00 | 269,3 | 6,8 | 2,9 | 13,5 | 93,3 | 13,31 | --- | 12,3 | --- | 7 |
| 01:10 | 281,3 | 7,3 | 3,3 | 13,5 | 93,1 | 13,19 | --- | 12,3 | --- | 7 |
| 01:20 | 270,2 | 7,0 | 3,3 | 13,5 | 93,0 | 13,36 | --- | 12,3 | --- | 7 |
| 01:30 | 273,0 | 7,6 | 4,0 | 13,6 | 92,8 | 13,36 | --- | 12,4 | --- | 7 |
| 01:40 | 270,4 | 7,2 | 3,3 | 13,8 | 92,5 | 13,60 | --- | 12,5 | --- | 7 |
| 01:50 | 268,8 | 6,6 | 3,7 | 13,9 | 92,5 | 13,87 | --- | 12,6 | --- | 7 |
| 02:00 | 286,1 | 6,5 | 2,5 | 14,0 | 92,5 | 13,98 | --- | 12,7 | --- | 7 |
| 02:10 | 286,3 | 4,8 | 2,3 | 14,0 | 92,5 | 14,36 | --- | 12,7 | --- | 7 |
| 02:20 | 279,1 | 5,5 | 2,7 | 13,9 | 92,4 | 14,06 | --- | 12,6 | --- | 7 |
| 02:30 | 286,7 | 4,7 | 2,3 | 13,7 | 92,5 | 14,11 | --- | 12,4 | --- | 7 |
| 02:40 | 286,3 | 6,1 | 2,8 | 13,6 | 92,7 | 13,62 | --- | 12,3 | --- | 7 |
| 02:50 | 265,2 | 5,9 | 2,5 | 13,5 | 92,8 | 13,49 | --- | 12,2 | --- | 7 |
| 03:00 | 277,7 | 7,8 | 3,7 | 13,3 | 92,9 | 12,95 | --- | 12,1 | --- | 7 |
| 03:10 | 267,8 | 6,9 | 3,3 | 13,3 | 92,7 | 13,04 | --- | 12,0 | --- | 7 |
| 03:20 | 274,8 | 6,7 | 3,2 | 13,2 | 92,5 | 13,00 | --- | 11,9 | --- | 7 |
| 03:30 | 288,0 | 6,6 | 2,7 | 13,1 | 92,2 | 12,89 | --- | 11,7 | --- | 7 |
| 03:40 | 289,7 | 6,4 | 3,4 | 13,1 | 92,5 | 12,98 | --- | 11,8 | --- | 7 |
| 03:50 | 284,0 | 6,0 | 2,4 | 13,2 | 92,7 | 13,15 | --- | 11,9 | --- | 7 |
| 04:00 | 289,5 | 5,4 | 2,7 | 13,2 | 92,9 | 13,25 | --- | 11,9 | --- | 7 |
| 04:10 | 282,0 | 5,4 | 2,3 | 13,3 | 93,2 | 13,45 | --- | 12,2 | --- | 7 |
| 04:20 | 268,5 | 7,0 | 2,8 | 13,4 | 93,3 | 13,15 | --- | 12,2 | --- | 7 |
| 04:30 | 281,8 | 6,7 | 3,1 | 13,3 | 93,3 | 13,11 | --- | 12,1 | --- | 7 |
| 04:40 | 285,6 | 6,7 | 3,3 | 13,3 | 93,4 | 13,14 | --- | 12,2 | --- | 7 |
| 04:50 | 288,6 | 6,7 | 3,3 | 13,4 | 93,4 | 13,29 | --- | 12,3 | --- | 7 |
| 05:00 | 289,0 | 7,3 | 3,4 | 13,5 | 93,4 | 13,28 | --- | 12,4 | --- | 7 |
| 05:10 | 290,7 | 8,9 | 4,0 | 13,6 | 93,5 | 13,09 | --- | 12,4 | --- | 7 |
| 05:20 | 281,3 | 10,3 | 4,4 | 13,6 | 93,5 | 12,91 | --- | 12,5 | --- | 7 |
| 05:30 | 284,6 | 9,0 | 4,0 | 13,6 | 93,6 | 13,05 | --- | 12,4 | --- | 7 |
| 05:40 | 273,3 | 10,7 | 5,1 | 13,5 | 93,7 | 12,75 | --- | 12,4 | --- | 7 |
| 05:50 | 271,8 | 10,4 | 5,1 | 13,5 | 93,7 | 12,78 | --- | 12,4 | --- | 7 |
| 06:00 | 278,4 | 9,8 | 4,1 | 13,5 | 93,6 | 12,86 | --- | 12,4 | --- | 7 |
| 06:10 | 284,8 | 9,0 | 5,0 | 13,5 | 93,7 | 13,00 | --- | 12,4 | --- | 8 |
| 06:20 | 291,0 | 7,1 | 3,1 | 13,4 | 93,5 | 13,17 | --- | 12,3 | --- | 10 |
| 06:30 | 270,8 | 8,2 | 3,2 | 13,3 | 93,7 | 12,87 | --- | 12,2 | --- | 15 |
| 06:40 | 279,5 | 8,4 | 3,8 | 13,3 | 93,7 | 12,82 | --- | 12,2 | --- | 25 |
| 06:50 | 283,4 | 6,6 | 3,2 | 13,4 | 93,5 | 13,23 | --- | 12,2 | --- | 44 |
| 07:00 | 284,3 | 6,1 | 2,9 | 13,5 | 93,4 | 13,46 | --- | 12,3 | --- | 102 |
| 07:10 | 285,0 | 5,7 | 2,7 | 13,9 | 92,9 | 14,02 | --- | 12,6 | --- | 181 |
| 07:20 | 283,4 | 5,5 | 2,7 | 14,5 | 91,7 | 14,75 | --- | 13,0 | --- | 230 |
| 07:30 | 295,1 | 5,4 | 2,5 | 14,9 | 90,4 | 15,28 | --- | 13,3 | --- | 201 |
| 07:40 | 315,0 | 5,6 | 2,4 | 15,3 | 89,6 | 15,64 | --- | 13,5 | --- | 295 |
| 07:50 | 292,8 | 6,0 | 2,9 | 15,5 | 88,6 | 15,81 | --- | 13,5 | --- | 324 |
| Tiempo (UTC) | Dirección del viento en Grado | Velocidad del viento en km/h | Ráfagas de viento en m/s | Temperatura en °C | Humedad rel. en % | Windchill en °C | Presión atm. en hPa | Punto de rocío en °C | Precipitación en mm | Radiación global en W/m² |
|---|---|---|---|---|---|---|---|---|---|---|
| 08:00 | 322,2 | 6,0 | 2,8 | 15,9 | 87,6 | 16,29 | --- | 13,8 | --- | 334 |
| 08:10 | 328,4 | 6,0 | 2,5 | 16,3 | 86,3 | 16,67 | --- | 13,9 | --- | 363 |
| 08:20 | 347,6 | 7,0 | 3,2 | 16,8 | 84,6 | 17,18 | --- | 14,2 | --- | 442 |
| 08:30 | 346,5 | 6,7 | 2,9 | 17,2 | 80,9 | 17,68 | --- | 13,9 | --- | 510 |
| 08:40 | 322,5 | 7,4 | 3,2 | 17,3 | 79,1 | 17,72 | --- | 13,7 | --- | 511 |
| 08:50 | 346,0 | 8,1 | 3,6 | 17,6 | 78,9 | 17,89 | --- | 13,8 | --- | 290 |
| 09:00 | 331,2 | 6,1 | 3,4 | 17,3 | 79,7 | 17,81 | --- | 13,7 | --- | 695 |
| 09:10 | 315,8 | 7,4 | 3,4 | 17,7 | 78,6 | 18,11 | --- | 13,9 | --- | 351 |
| 09:20 | 324,4 | 7,2 | 3,3 | 17,3 | 79,1 | 17,70 | --- | 13,6 | --- | 472 |
| 09:30 | 349,2 | 6,6 | 2,9 | 17,7 | 78,5 | 18,21 | --- | 13,9 | --- | 436 |
| 09:40 | 356,9 | 7,1 | 3,3 | 18,6 | 76,1 | 19,27 | --- | 14,4 | --- | 794 |
| 09:50 | 33,8 | 6,8 | 3,7 | 19,8 | 72,3 | 20,64 | --- | 14,7 | --- | 904 |
| 10:00 | 3,7 | 6,7 | 3,4 | 20,9 | 66,2 | 21,97 | --- | 14,5 | --- | 934 |
| 10:10 | 11,2 | 6,9 | 3,9 | 20,9 | 65,9 | 21,98 | --- | 14,4 | --- | 806 |
| 10:20 | 359,5 | 8,8 | 4,7 | 20,5 | 66,4 | 21,31 | --- | 14,2 | --- | 875 |
| 10:30 | 1,7 | 5,9 | 3,5 | 19,9 | 69,2 | 20,89 | --- | 14,2 | --- | 876 |
| 10:40 | 21,3 | 7,1 | 3,9 | 20,8 | 65,1 | 21,83 | --- | 14,2 | --- | 986 |
| 10:50 | 7,1 | 7,3 | 3,6 | 21,3 | 63,4 | 22,33 | --- | 14,2 | --- | 1064 |
| 11:00 | 11,2 | 7,3 | 3,7 | 21,0 | 64,4 | 22,05 | --- | 14,2 | --- | 832 |
| 11:10 | 24,8 | 9,2 | 5,0 | 20,9 | 66,1 | 21,72 | --- | 14,4 | --- | 612 |
| 11:20 | 14,5 | 9,5 | 5,2 | 20,0 | 69,0 | 20,65 | --- | 14,2 | --- | 486 |
| 11:30 | 15,3 | 10,6 | 5,3 | 19,7 | 71,1 | 20,14 | --- | 14,3 | --- | 869 |
| 11:40 | 17,0 | 9,6 | 5,3 | 19,6 | 70,8 | 20,17 | --- | 14,2 | --- | 820 |
| 11:50 | 17,3 | 8,8 | 5,2 | 19,8 | 69,9 | 20,46 | --- | 14,2 | --- | 971 |
| 12:00 | 6,9 | 9,3 | 5,3 | 20,0 | 69,7 | 20,67 | --- | 14,4 | --- | 837 |
| 12:10 | 17,6 | 8,5 | 4,9 | 20,3 | 69,8 | 21,06 | --- | 14,7 | --- | 1123 |
| 12:20 | 358,8 | 9,8 | 4,9 | 20,4 | 67,6 | 21,09 | --- | 14,3 | --- | 794 |
| 12:30 | 6,7 | 9,1 | 5,0 | 20,2 | 68,9 | 20,89 | --- | 14,4 | --- | 530 |
| 12:40 | 47,9 | 7,0 | 3,9 | 19,9 | 69,8 | 20,78 | --- | 14,3 | --- | 760 |
| 12:50 | 68,2 | 6,9 | 3,5 | 19,9 | 73,4 | 20,76 | --- | 15,0 | --- | 454 |
| 13:00 | 60,9 | 6,0 | 3,2 | 19,6 | 76,5 | 20,48 | --- | 15,3 | --- | 411 |
| 13:10 | 56,7 | 6,3 | 3,6 | 19,5 | 76,7 | 20,31 | --- | 15,3 | --- | 377 |
| 13:20 | 89,3 | 8,4 | 4,5 | 18,9 | 77,8 | 19,48 | --- | 15,0 | --- | 625 |
| 13:30 | 48,5 | 3,9 | 2,3 | 19,1 | 78,2 | 20,31 | --- | 15,2 | --- | 352 |
| 13:40 | 6,5 | 7,7 | 4,3 | 19,6 | 73,1 | 20,30 | --- | 14,7 | --- | 453 |
| 13:50 | 336,1 | 6,7 | 4,0 | 19,3 | 71,5 | 20,18 | --- | 14,1 | --- | 897 |
| 14:00 | 317,2 | 9,1 | 5,5 | 19,7 | 71,2 | 20,29 | --- | 14,4 | --- | 571 |
| 14:10 | 320,0 | 10,2 | 4,9 | 18,9 | 73,6 | 19,29 | --- | 14,1 | --- | 528 |
| 14:20 | 317,4 | 9,6 | 4,4 | 18,3 | 75,7 | 18,63 | --- | 14,0 | --- | 536 |
| 14:30 | 328,0 | 7,9 | 4,2 | 18,4 | 75,9 | 18,85 | --- | 14,1 | --- | 376 |
| 14:40 | 316,3 | 7,9 | 4,1 | 18,2 | 76,6 | 18,62 | --- | 14,0 | --- | 420 |
| 14:50 | 328,4 | 9,4 | 4,2 | 18,0 | 76,8 | 18,26 | --- | 13,9 | --- | 396 |
| 15:00 | 330,1 | 9,8 | 4,7 | 17,9 | 77,8 | 18,14 | --- | 14,0 | --- | 445 |
| 15:10 | 325,3 | 9,4 | 5,8 | 17,9 | 77,9 | 18,09 | --- | 14,0 | --- | 341 |
| 15:20 | 316,1 | 10,1 | 4,4 | 17,5 | 79,3 | 17,63 | --- | 13,9 | --- | 279 |
| 15:30 | 324,6 | 10,5 | 4,4 | 17,1 | 80,6 | 17,06 | --- | 13,7 | --- | 263 |
| 15:40 | 326,2 | 9,7 | 4,6 | 17,0 | 81,4 | 17,01 | --- | 13,7 | --- | 232 |
| 15:50 | 321,0 | 9,3 | 4,6 | 16,8 | 82,2 | 16,89 | --- | 13,8 | --- | 225 |
| Tiempo (UTC) | Dirección del viento en Grado | Velocidad del viento en km/h | Ráfagas de viento en m/s | Temperatura en °C | Humedad rel. en % | Windchill en °C | Presión atm. en hPa | Punto de rocío en °C | Precipitación en mm | Radiación global en W/m² |
|---|---|---|---|---|---|---|---|---|---|---|
| 16:00 | 316,3 | 10,9 | 5,5 | 16,6 | 82,8 | 16,47 | --- | 13,7 | --- | 207 |
| 16:10 | 318,8 | 8,7 | 4,4 | 16,5 | 83,5 | 16,56 | --- | 13,6 | --- | 202 |
| 16:20 | 321,6 | 8,8 | 4,2 | 16,5 | 83,4 | 16,57 | --- | 13,7 | --- | 313 |
| 16:30 | 316,2 | 7,4 | 3,7 | 16,8 | 82,8 | 17,11 | --- | 13,8 | --- | 316 |
| 16:40 | 342,2 | 8,7 | 4,1 | 17,1 | 81,5 | 17,30 | --- | 13,9 | --- | 333 |
| 16:50 | 339,1 | 6,7 | 3,5 | 17,6 | 80,3 | 18,19 | --- | 14,2 | --- | 501 |
| 17:00 | 358,1 | 6,8 | 3,5 | 18,7 | 77,7 | 19,42 | --- | 14,7 | --- | 428 |
| 17:10 | 353,2 | 7,8 | 3,9 | 18,6 | 77,1 | 19,15 | --- | 14,5 | --- | 408 |
| 17:20 | 328,7 | 9,2 | 4,3 | 18,1 | 77,5 | 18,44 | --- | 14,1 | --- | 237 |
| 17:30 | 337,0 | 9,7 | 4,9 | 17,3 | 80,4 | 17,45 | --- | 13,9 | --- | 226 |
| 17:40 | 329,2 | 10,1 | 5,1 | 16,8 | 82,2 | 16,74 | --- | 13,7 | --- | 156 |
| 17:50 | 314,8 | 10,9 | 5,1 | 16,2 | 83,6 | 15,97 | --- | 13,4 | --- | 131 |
| 18:00 | 306,6 | 11,3 | 5,1 | 16,0 | 85,2 | 15,67 | --- | 13,5 | --- | 119 |
| 18:10 | 308,9 | 13,0 | 5,9 | 15,8 | 85,9 | 15,20 | --- | 13,3 | --- | 90 |
| 18:20 | 308,1 | 11,7 | 5,6 | 15,5 | 87,0 | 15,02 | --- | 13,3 | --- | 90 |
| 18:30 | 305,4 | 10,4 | 5,2 | 15,4 | 87,7 | 15,08 | --- | 13,3 | --- | 71 |
| 18:40 | 315,8 | 10,7 | 5,4 | 15,4 | 88,5 | 15,00 | --- | 13,4 | --- | 52 |
| 18:50 | 309,6 | 10,5 | 4,8 | 15,3 | 89,2 | 14,89 | --- | 13,4 | --- | 28 |
| 19:00 | 310,6 | 14,6 | 6,4 | 15,0 | 89,7 | 14,10 | --- | 13,2 | --- | 27 |
| 19:10 | 305,2 | 12,3 | 5,9 | 14,8 | 90,6 | 14,17 | --- | 13,2 | --- | 17 |
| 19:20 | 307,3 | 10,5 | 5,4 | 14,7 | 90,8 | 14,27 | --- | 13,2 | --- | 15 |
| 19:30 | 308,2 | 11,5 | 5,7 | 14,6 | 91,0 | 14,01 | --- | 13,1 | --- | 11 |
| 19:40 | 308,6 | 12,5 | 5,6 | 14,5 | 91,4 | 13,74 | --- | 13,0 | --- | 9 |
| 19:50 | 307,7 | 12,6 | 5,7 | 14,5 | 91,9 | 13,70 | --- | 13,1 | --- | 8 |
| 20:00 | 307,7 | 13,1 | 5,9 | 14,4 | 92,1 | 13,59 | --- | 13,1 | --- | 8 |
| 20:10 | 304,2 | 11,8 | 5,3 | 14,4 | 92,4 | 13,69 | --- | 13,1 | --- | 8 |
| 20:20 | 307,6 | 11,3 | 5,5 | 14,4 | 92,7 | 13,77 | --- | 13,1 | --- | 8 |
| 20:30 | 307,8 | 12,0 | 4,9 | 14,3 | 92,8 | 13,57 | --- | 13,1 | --- | 8 |
| 20:40 | 301,3 | 10,8 | 5,7 | 14,2 | 93,0 | 13,59 | --- | 13,0 | --- | 8 |
| 20:50 | 295,8 | 9,7 | 4,8 | 14,2 | 93,2 | 13,74 | --- | 13,0 | --- | 7 |
| 21:00 | 293,4 | 8,8 | 4,4 | 14,3 | 93,3 | 13,90 | --- | 13,1 | --- | 7 |
| 21:10 | 292,2 | 9,1 | 4,6 | 14,2 | 93,3 | 13,79 | --- | 13,0 | --- | 8 |
| 21:20 | 286,9 | 9,7 | 4,8 | 14,2 | 93,3 | 13,72 | --- | 13,0 | --- | 8 |
| 21:30 | 300,9 | 9,3 | 4,7 | 14,4 | 93,5 | 13,94 | --- | 13,2 | --- | 7 |
| 21:40 | 307,9 | 12,3 | 5,6 | 14,3 | 93,5 | 13,53 | --- | 13,2 | --- | 7 |
| 21:50 | 289,2 | 10,8 | 5,2 | 14,3 | 93,6 | 13,66 | --- | 13,2 | --- | 7 |
| 22:00 | 284,1 | 13,1 | 6,3 | 14,2 | 93,7 | 13,30 | --- | 13,1 | --- | 8 |
| 22:10 | 285,9 | 13,8 | 7,4 | 14,1 | 93,6 | 13,13 | --- | 13,0 | --- | 8 |
| 22:20 | 297,6 | 10,8 | 4,7 | 14,4 | 93,8 | 13,74 | --- | 13,2 | --- | 7 |
| 22:30 | 298,0 | 10,9 | 5,7 | 14,1 | 93,5 | 13,49 | --- | 13,0 | --- | 8 |
| 22:40 | 296,7 | 10,2 | 5,0 | 14,2 | 93,7 | 13,58 | --- | 13,0 | --- | 7 |
| 22:50 | 290,4 | 9,4 | 4,5 | 14,0 | 93,7 | 13,54 | --- | 12,9 | --- | 7 |
| 23:00 | 283,6 | 9,5 | 4,3 | 13,9 | 93,7 | 13,41 | --- | 12,8 | --- | 7 |
| 23:10 | --- | --- | --- | --- | --- | --- | --- | --- | --- | --- |
| 23:20 | --- | --- | --- | --- | --- | --- | --- | --- | --- | --- |
| 23:30 | --- | --- | --- | --- | --- | --- | --- | --- | --- | --- |
| 23:40 | --- | --- | --- | --- | --- | --- | --- | --- | --- | --- |
| 23:50 | --- | --- | --- | --- | --- | --- | --- | --- | --- | --- |
| << 1.5. | 3.5. >> |